Dewpoint
40 41 42 43 42 42 42 42 43 43 43 43 43 43 43 44 44 43 39 36 40 40 42 29 13 25 22 18 17 23 18 17 16 15 14 16 29 51 56 55 56 56 57 60 63
40 40 40 40 41 42 42 42 42 42 43 43 43 43 43 44 41 37 40 40 42 45 38 16 4 18 18 15 14 18 18 18 18 17 15 21 26 50 54 53 55 58 61 63 63
40 40 41 41 41 41 42 42 42 42 42 42 42 42 44 44 35 14 38 41 41 44 35 30 18 16 14 12 12 15 16 18 18 20 20 20 22 54 53 52 56 58 60 62 62
40 40 40 41 41 41 41 42 42 42 42 42 42 42 45 40 -12 18 44 53 48 43 40 28 23 16 12 11 10 14 16 18 19 20 19 28 51 51 56 57 60 61 61 62 62
39 40 40 40 40 41 41 41 41 41 42 42 42 44 44 36 33 28 34 33 45 45 39 22 20 13 10 9 8 9 13 16 18 19 34 46 49 53 57 57 60 60 56 59 61
39 39 39 40 40 40 41 41 42 42 43 43 43 45 42 28 32 31 29 28 39 43 39 25 22 13 10 10 6 6 6 11 15 15 35 40 54 54 56 57 58 56 56 60 61
39 39 39 40 40 41 42 43 44 45 45 45 44 43 38 33 33 30 31 25 26 40 33 28 20 15 10 10 12 8 7 8 9 11 32 50 50 49 56 57 55 54 57 60 59
39 39 40 40 42 43 44 45 46 47 47 46 45 43 37 39 38 37 37 34 28 24 32 26 22 15 11 12 9 9 8 5 7 10 34 35 33 50 56 54 54 56 58 58 60
39 39 40 42 44 45 46 47 47 47 46 47 43 41 35 38 39 39 36 29 24 24 25 26 21 16 11 7 8 7 6 6 5 7 19 36 39 51 55 54 54 55 57 58 58
39 39 40 42 44 45 46 46 44 45 47 45 42 38 37 29 33 32 33 31 23 27 29 26 16 15 12 6 5 5 5 8 6 8 28 37 39 51 52 52 54 55 56 57 57
39 39 41 43 44 46 42 33 32 31 34 29 27 37 34 32 29 27 26 27 24 20 24 24 11 9 9 6 7 6 8 5 8 13 27 33 43 49 51 52 52 53 55 55 55
39 40 42 43 44 44 37 33 35 35 32 32 32 30 30 30 27 23 25 24 19 16 17 15 20 9 9 9 7 7 8 9 9 12 33 42 44 47 49 51 52 52 54 54 55
40 41 42 44 45 37 37 35 38 39 31 30 34 33 30 30 28 21 18 15 14 14 14 14 12 14 9 9 7 6 6 10 10 28 46 42 44 46 49 52 53 53 54 55 54
40 42 44 45 34 38 34 36 38 40 27 24 20 21 24 24 19 20 22 22 9 9 13 14 15 10 9 8 7 5 9 9 11 15 24 40 34 41 46 48 51 51 53 53 53
42 43 44 44 35 33 34 38 40 40 -0 21 17 19 18 16 16 16 20 20 15 15 12 13 13 12 9 7 9 6 9 9 10 13 16 37 30 39 46 47 49 51 51 53 54
43 43 44 38 37 35 38 41 39 19 13 19 17 17 19 23 25 28 18 18 18 15 14 14 13 12 10 8 9 8 9 10 15 16 13 17 26 38 43 45 47 50 51 52 52
44 43 42 40 28 37 40 36 20 15 21 14 17 20 20 22 25 25 27 15 11 8 7 7 12 15 11 7 8 8 6 7 8 10 10 14 18 22 44 44 45 49 50 51 51
43 41 36 39 37 38 36 23 14 20 17 16 17 21 21 21 22 27 29 27 27 15 5 4 5 6 10 11 6 7 8 9 5 7 8 18 13 17 40 43 44 48 50 51 50
40 35 31 27 33 40 26 15 18 18 18 14 20 22 21 21 20 26 29 29 28 28 19 6 4 6 10 10 8 8 6 14 14 18 11 14 20 26 35 41 43 45 49 50 50
35 34 22 28 36 27 18 17 15 17 16 18 18 20 20 21 17 24 30 30 28 29 27 28 8 8 8 12 10 9 11 9 16 11 8 15 16 18 37 41 43 46 49 49 50
31 25 22 28 27 20 15 18 19 12 13 15 16 18 17 15 14 26 26 31 21 28 27 30 24 6 8 9 8 9 11 14 16 18 11 11 14 21 32 40 43 44 48 49 50
28 16 22 27 17 19 18 18 21 13 9 13 18 24 12 14 12 26 23 26 25 22 23 28 30 16 6 11 10 10 11 17 11 15 20 15 12 26 26 36 43 45 48 49 50
27 23 23 23 15 16 17 14 13 13 12 12 17 15 14 11 15 23 16 19 18 19 26 25 27 20 7 8 9 6 10 14 17 21 15 14 15 25 28 28 39 44 46 48 49
22 9 20 21 21 18 18 13 13 14 11 14 14 17 16 15 19 19 14 15 16 16 20 27 31 26 16 15 16 9 8 15 10 7 14 14 17 21 23 28 30 35 43 47 48
23 20 23 16 17 17 16 14 13 14 15 13 14 18 18 17 15 14 13 13 13 18 10 21 26 25 27 28 24 18 9 14 9 11 7 12 13 16 23 24 31 38 43 46 47
23 25 26 21 20 17 18 16 15 18 15 11 14 18 17 17 17 15 15 14 12 14 8 16 23 25 25 25 20 16 16 12 17 20 15 14 14 31 25 26 29 39 45 45 46
30 30 25 20 18 16 17 20 17 20 17 17 16 17 15 16 17 17 18 19 17 14 10 14 24 22 22 24 21 18 31 29 32 33 29 19 31 32 29 26 23 28 42 45 45
Wind_Speed
20 21 21 22 23 23 23 23 23 23 23 23 23 23 23 23 24 18 19 17 18 27 7 10 8 3 6 5 5 5 9 19 21 15 13 1 11 7 6 21 2 5 12 24 28
20 20 21 22 23 24 24 24 24 24 23 22 22 22 22 24 23 21 19 28 30 13 10 19 14 8 7 8 7 9 13 20 17 15 3 5 10 1 5 17 6 14 24 29 29
22 22 23 24 25 25 25 25 25 24 23 22 21 20 19 18 9 10 6 21 23 22 11 7 8 10 9 7 10 9 21 26 23 7 1 7 5 2 15 7 7 24 24 23 28
24 25 26 26 27 27 26 26 25 24 23 21 19 17 17 8 9 1 10 19 9 19 15 8 8 14 10 16 9 10 22 19 25 7 2 4 4 1 4 9 29 23 20 12 20
25 25 27 28 28 28 29 28 27 25 23 20 17 14 7 7 16 21 28 20 7 14 21 22 13 10 16 10 14 15 9 23 23 8 4 7 3 5 13 25 33 34 28 30 28
25 26 28 29 30 30 30 30 29 27 22 18 14 11 6 27 10 16 15 13 7 17 16 17 13 10 11 7 17 9 25 21 13 9 10 9 9 5 10 19 26 24 20 26 29
25 26 28 29 30 31 31 31 30 27 24 18 13 9 17 35 15 12 22 13 8 15 12 21 7 15 8 4 14 16 13 20 30 8 8 17 6 6 20 17 27 28 27 20 14
25 27 28 28 29 30 31 31 30 29 22 16 11 10 14 13 19 22 21 21 18 19 17 14 15 6 3 3 3 15 12 23 13 15 13 17 14 11 22 20 16 14 18 16 12
26 28 28 29 29 30 31 31 27 10 4 9 6 5 16 10 8 16 21 14 9 14 15 10 8 8 5 7 6 7 15 22 13 13 10 19 6 16 20 17 19 22 17 19 18
28 29 29 29 29 30 30 23 11 3 6 6 3 3 10 7 9 18 8 14 6 10 6 12 8 12 12 17 33 9 14 9 24 11 13 16 12 26 23 20 23 20 21 23 23
29 29 29 29 30 28 17 5 9 5 7 9 20 18 36 27 20 11 14 4 10 7 17 14 19 31 35 22 8 14 8 18 10 12 14 23 19 30 25 19 20 21 22 22 24
30 31 29 29 30 19 6 6 5 9 15 12 25 28 36 19 16 25 4 11 11 15 10 9 33 22 14 16 16 11 11 12 10 12 8 17 24 29 28 33 36 32 26 26 18
30 31 28 30 24 6 7 4 7 8 6 12 11 12 14 8 9 20 7 5 7 12 15 20 9 25 15 20 21 22 22 10 6 11 8 18 11 18 20 16 17 15 17 21 28
31 29 27 26 3 8 6 9 16 5 4 8 7 6 5 5 7 12 11 5 3 21 11 14 17 22 17 21 22 27 18 15 13 7 14 10 14 21 29 21 25 26 23 26 25
32 30 23 9 7 7 10 11 15 2 6 23 10 10 30 5 14 6 4 9 12 5 12 11 17 14 23 23 19 12 15 18 17 9 7 18 7 16 25 21 23 29 25 27 27
33 31 21 2 2 9 11 14 2 2 5 12 13 26 24 15 11 18 7 6 9 11 9 14 2 13 14 12 15 15 5 14 4 7 14 15 10 15 32 32 29 27 27 29 28
33 27 10 1 11 9 12 3 2 4 10 15 21 27 18 23 10 18 10 8 8 13 15 6 19 11 3 14 9 13 16 7 12 8 20 17 11 7 28 30 38 35 36 33 31
33 15 4 4 17 13 4 3 5 4 6 19 16 19 8 23 10 22 13 11 14 5 8 14 11 15 5 17 12 20 20 13 15 18 22 9 13 9 28 31 29 36 40 37 32
19 6 7 20 18 2 5 8 3 8 15 15 14 6 6 18 14 14 8 12 12 17 2 11 16 10 11 14 20 9 21 13 4 0 5 7 3 1 15 32 31 26 25 29 29
4 5 22 28 13 8 9 4 7 19 16 9 9 8 10 14 14 13 8 13 12 11 14 5 4 8 8 10 17 14 15 14 4 12 12 7 12 12 14 23 25 21 28 30 29
6 4 25 31 7 12 9 7 9 21 19 12 9 8 12 11 18 5 12 6 21 18 15 6 4 3 4 7 16 8 13 9 9 4 12 8 13 9 25 26 28 26 30 31 29
4 7 20 12 18 5 10 12 13 20 17 13 14 11 14 15 9 8 11 7 19 19 12 6 4 6 14 7 4 7 13 10 17 9 3 7 2 5 10 20 25 31 30 30 33
5 4 9 12 11 13 9 15 10 17 18 16 13 12 18 9 8 11 15 16 19 17 16 11 4 2 4 3 2 4 7 11 11 5 11 10 6 3 6 11 24 27 27 28 31
5 8 8 9 2 5 5 15 18 13 10 18 9 11 15 11 8 8 19 10 28 17 17 9 4 3 4 2 2 4 11 14 13 9 11 13 8 5 9 5 14 19 23 29 29
8 4 2 9 16 15 9 13 16 18 7 15 8 16 13 6 11 11 12 16 18 5 16 9 4 8 11 10 6 3 12 17 16 16 16 10 10 5 5 8 3 12 17 22 24
5 5 6 5 6 6 12 14 17 18 10 16 16 19 15 9 6 21 19 10 8 11 16 11 6 7 3 11 2 15 13 11 10 6 12 15 12 23 8 6 11 13 20 25 27
4 3 1 5 9 8 7 11 16 18 7 15 18 18 14 12 23 26 26 21 23 16 12 7 8 9 0 8 2 10 16 12 15 18 4 6 8 19 13 12 2 14 20 22 27
Wind_Direction
350 347 344 340 337 333 330 327 326 324 322 322 322 323 322 320 311 297 252 225 204 238 250 282 310 185 156 210 207 150 202 223 227 218 219 61 18 31 71 134 155 185 162 152 147
344 343 338 334 332 329 326 324 322 320 319 318 319 321 324 325 312 276 235 219 215 209 181 226 234 165 169 198 199 194 204 224 227 221 153 71 16 352 107 141 82 81 114 137 142
343 338 333 334 330 326 322 319 318 316 316 315 316 319 322 332 315 264 338 231 230 214 207 203 192 178 189 178 194 198 218 222 243 215 309 306 311 339 150 159 77 133 136 140 145
339 337 334 332 329 325 321 317 313 311 310 309 310 314 314 337 281 224 28 30 238 205 221 207 184 177 197 204 202 213 227 227 249 238 198 92 118 359 11 138 122 137 118 128 140
338 333 332 330 326 322 318 313 310 306 303 302 301 303 312 270 247 276 311 320 29 170 206 197 187 172 195 198 209 226 235 233 249 247 137 111 129 141 123 121 126 137 139 173 174
338 334 331 327 323 320 315 311 306 301 295 287 284 281 242 264 249 276 301 315 193 170 198 210 202 193 200 215 188 205 232 245 242 211 184 153 137 94 156 159 149 150 148 180 171
335 334 331 327 322 317 314 309 303 297 290 276 267 254 252 248 268 280 302 293 310 213 194 209 218 181 186 197 216 231 239 235 242 212 181 121 157 201 163 178 144 153 171 201 173
336 334 331 326 321 317 312 304 300 304 295 262 237 232 257 255 262 272 267 278 260 249 239 218 210 225 231 329 321 200 218 237 227 190 189 171 216 175 171 170 176 183 167 161 151
337 335 333 328 323 320 313 306 308 319 42 141 149 201 273 293 254 258 228 241 250 220 214 219 176 206 211 226 249 228 219 222 248 200 176 190 182 170 181 185 180 179 157 145 155
339 336 335 329 325 324 317 314 313 98 112 157 123 253 263 267 317 310 217 218 202 165 175 193 180 193 211 192 211 200 204 206 220 204 177 180 208 167 180 185 184 172 159 166 170
339 337 334 331 330 330 337 14 11 331 20 267 265 257 281 284 314 284 309 196 219 184 187 184 194 206 210 208 199 192 193 222 218 188 165 188 179 178 184 182 175 174 176 174 177
339 336 335 332 330 330 358 59 15 277 302 274 261 258 258 269 290 285 271 175 182 199 167 166 213 210 202 192 206 221 228 234 238 181 160 166 182 178 178 188 185 180 178 179 168
339 336 335 329 328 9 340 8 313 335 289 290 264 271 275 158 224 271 177 225 182 192 198 214 232 199 210 188 198 218 227 222 210 129 62 139 158 180 197 192 189 193 192 181 173
338 336 332 331 13 339 315 299 331 307 307 300 339 307 327 246 265 222 204 199 232 214 206 241 243 192 198 207 191 213 204 222 248 210 183 198 174 198 187 190 189 193 191 188 185
335 334 331 329 292 314 287 324 319 168 328 329 335 325 325 249 295 354 180 165 221 228 185 228 198 207 211 209 194 215 178 210 233 238 173 208 178 200 197 201 184 193 195 193 189
334 331 335 23 257 252 313 316 87 15 287 340 329 328 337 350 336 337 219 189 189 229 262 225 242 206 216 201 193 194 165 201 194 189 235 207 185 191 191 197 197 199 197 194 188
334 330 331 172 314 329 334 8 350 44 322 342 330 327 317 343 0 347 318 201 174 187 230 233 244 246 207 223 194 210 175 178 202 200 233 195 193 213 192 195 193 190 199 193 187
333 332 321 250 307 317 358 58 59 312 311 329 327 315 350 7 351 344 356 22 22 2 200 217 234 234 222 210 199 205 188 186 181 194 220 143 212 211 187 201 204 193 196 191 184
335 352 2 338 334 9 55 56 335 330 322 325 338 335 356 355 333 354 3 15 27 4 300 205 235 251 218 204 202 183 208 204 142 78 157 193 208 276 191 195 203 200 187 192 193
15 360 359 338 344 39 59 44 352 359 338 333 3 359 342 340 344 353 331 33 347 345 318 284 261 213 247 199 218 206 180 188 218 199 206 209 196 191 182 196 194 183 187 193 194
38 57 352 339 33 43 44 349 344 354 10 7 344 359 340 342 325 324 10 349 8 336 335 319 254 259 190 204 190 170 193 168 174 175 198 181 217 199 186 196 189 189 191 190 190
39 59 335 1 47 16 17 352 9 358 360 8 25 59 349 326 321 2 5 339 319 334 346 324 315 237 231 185 153 187 179 154 184 188 128 196 204 159 202 202 189 187 192 192 191
56 360 340 33 39 13 4 18 1 1 12 1 12 355 342 350 330 29 2 320 338 343 348 338 301 274 214 264 111 201 207 143 126 118 187 177 188 327 153 195 199 191 192 190 192
55 22 349 32 51 357 359 5 2 357 356 0 8 353 350 332 4 339 346 340 321 320 340 352 257 337 231 223 174 187 175 176 165 171 166 192 149 111 58 102 202 209 194 188 183
34 50 5 356 357 5 20 3 2 2 347 4 346 357 343 310 343 343 333 331 317 339 358 15 304 333 284 289 272 119 171 178 181 180 187 187 201 174 128 71 189 191 174 168 174
58 15 354 324 329 1 18 3 351 349 324 346 342 330 327 317 336 310 307 319 285 317 351 353 305 328 304 353 328 82 52 150 78 60 145 163 203 354 320 122 106 161 160 169 175
11 38 22 336 349 11 347 344 336 334 310 323 322 323 314 318 308 286 276 262 255 274 306 304 321 347 268 340 330 68 351 88 89 43 13 118 350 339 350 342 205 165 176 181 187